Time,TemperatureF,DewpointF,PressureIn,WindDirection,WindDirectionDegrees,WindSpeedMPH,WindSpeedGustMPH,Humidity,HourlyPrecipIn,Conditions,Clouds,dailyrainin,SoftwareType,DateUTC
2013-05-25 00:01:00,41.8,39.6,30.01,NNW,341,0.0,0.0,92,0.00,CLR,,0.00,WeatherDisplay:10.37,2013-05-25 08:01:00,
2013-05-25 00:06:00,41.6,39.4,30.01,NNW,341,0.0,0.0,92,0.00,CLR,,0.00,WeatherDisplay:10.37,2013-05-25 08:06:00,
2013-05-25 00:11:00,41.5,39.3,30.01,NNW,341,0.0,0.0,92,0.00,CLR,,0.00,WeatherDisplay:10.37,2013-05-25 08:11:00,
2013-05-25 00:16:00,41.5,39.3,30.01,NNW,341,0.0,0.0,92,0.00,CLR,,0.00,WeatherDisplay:10.37,2013-05-25 08:16:00,
2013-05-25 00:21:00,41.5,39.3,30.01,NNW,341,0.0,0.0,92,0.00,CLR,,0.00,WeatherDisplay:10.37,2013-05-25 08:21:00,
2013-05-25 00:26:00,41.5,39.6,30.02,NNW,342,0.0,0.0,93,0.00,CLR,,0.00,WeatherDisplay:10.37,2013-05-25 08:26:00,
2013-05-25 00:31:00,41.5,39.6,30.02,NNW,341,0.0,0.0,93,0.00,CLR,,0.00,WeatherDisplay:10.37,2013-05-25 08:31:00,
2013-05-25 00:36:00,41.3,39.4,30.02,NNW,341,0.0,0.0,93,0.00,CLR,,0.00,WeatherDisplay:10.37,2013-05-25 08:36:00,
2013-05-25 00:41:00,41.2,39.3,30.02,NNW,341,0.0,0.0,93,0.00,CLR,,0.00,WeatherDisplay:10.37,2013-05-25 08:41:00,
2013-05-25 00:46:00,41.1,39.2,30.02,NNW,341,0.0,0.0,93,0.00,CLR,,0.00,WeatherDisplay:10.37,2013-05-25 08:46:00,
2013-05-25 00:51:00,40.8,38.9,30.02,NNW,341,0.0,0.0,93,0.00,CLR,,0.00,WeatherDisplay:10.37,2013-05-25 08:51:00,
2013-05-25 00:56:00,40.6,38.7,30.02,NNW,341,0.0,0.0,93,0.00,CLR,,0.00,WeatherDisplay:10.37,2013-05-25 08:56:00,
2013-05-25 01:01:00,40.6,38.7,30.02,NNW,341,0.0,0.0,93,0.00,CLR,,0.00,WeatherDisplay:10.37,2013-05-25 09:01:00,
2013-05-25 01:06:00,40.7,38.8,30.02,NNW,341,0.0,0.0,93,0.00,CLR,,0.00,WeatherDisplay:10.37,2013-05-25 09:06:00,
2013-05-25 01:11:00,40.7,38.8,30.02,NNW,341,0.0,0.0,93,0.00,CLR,,0.00,WeatherDisplay:10.37,2013-05-25 09:11:00,
2013-05-25 01:16:00,40.7,38.8,30.02,NNW,341,0.0,0.0,93,0.00,CLR,,0.00,WeatherDisplay:10.37,2013-05-25 09:16:00,
2013-05-25 01:21:00,40.7,38.8,30.02,NNW,341,0.0,0.0,93,0.00,CLR,,0.00,WeatherDisplay:10.37,2013-05-25 09:21:00,
2013-05-25 01:26:00,40.6,38.7,30.02,NNW,341,0.0,0.0,93,0.00,CLR,,0.00,WeatherDisplay:10.37,2013-05-25 09:26:00,
2013-05-25 01:31:00,40.5,38.6,30.02,NNW,341,0.0,0.0,93,0.00,CLR,,0.00,WeatherDisplay:10.37,2013-05-25 09:31:00,
2013-05-25 01:36:00,40.5,38.9,30.02,NNW,341,0.0,0.0,94,0.00,CLR,,0.00,WeatherDisplay:10.37,2013-05-25 09:36:00,
2013-05-25 01:41:00,40.5,38.9,30.02,NNW,341,0.0,0.0,94,0.00,CLR,,0.00,WeatherDisplay:10.37,2013-05-25 09:41:00,
2013-05-25 01:46:00,40.5,38.9,30.03,NNW,341,0.0,0.0,94,0.00,CLR,,0.00,WeatherDisplay:10.37,2013-05-25 09:46:00,
2013-05-25 01:51:00,40.5,38.9,30.03,NNW,341,0.0,0.0,94,0.00,CLR,,0.00,WeatherDisplay:10.37,2013-05-25 09:51:00,
2013-05-25 01:56:00,40.3,38.7,30.03,NNW,341,0.0,0.0,94,0.00,CLR,,0.00,WeatherDisplay:10.37,2013-05-25 09:56:00,
2013-05-25 02:01:00,40.0,38.1,30.03,NNW,341,0.0,0.0,93,0.00,CLR,,0.00,WeatherDisplay:10.37,2013-05-25 10:01:00,
2013-05-25 02:06:00,40.0,38.4,30.03,NNW,341,0.0,0.0,94,0.00,CLR,,0.00,WeatherDisplay:10.37,2013-05-25 10:06:00,
2013-05-25 02:11:00,39.9,38.3,30.03,NNW,341,0.0,0.0,94,0.00,CLR,,0.00,WeatherDisplay:10.37,2013-05-25 10:11:00,
2013-05-25 02:16:00,39.9,38.3,30.03,NNW,341,0.0,0.0,94,0.00,CLR,,0.00,WeatherDisplay:10.37,2013-05-25 10:16:00,
2013-05-25 02:21:00,39.8,38.2,30.03,NNW,341,0.0,0.0,94,0.00,CLR,,0.00,WeatherDisplay:10.37,2013-05-25 10:21:00,
2013-05-25 02:26:00,39.8,38.2,30.03,NNW,341,0.0,0.0,94,0.00,CLR,,0.00,WeatherDisplay:10.37,2013-05-25 10:26:00,
2013-05-25 02:31:00,39.7,38.1,30.03,NNW,341,0.0,0.0,94,0.00,CLR,,0.00,WeatherDisplay:10.37,2013-05-25 10:31:00,
2013-05-25 02:36:00,39.6,38.0,30.02,NNW,341,0.0,0.0,94,0.00,CLR,,0.00,WeatherDisplay:10.37,2013-05-25 10:36:00,
2013-05-25 02:41:00,39.5,37.9,30.02,NNW,341,0.0,0.0,94,0.00,CLR,,0.00,WeatherDisplay:10.37,2013-05-25 10:41:00,
2013-05-25 02:46:00,39.5,37.9,30.02,NNW,341,0.0,0.0,94,0.00,CLR,,0.00,WeatherDisplay:10.37,2013-05-25 10:46:00,
2013-05-25 02:51:00,39.5,37.9,30.02,NNW,341,0.0,0.0,94,0.00,CLR,,0.00,WeatherDisplay:10.37,2013-05-25 10:51:00,
2013-05-25 02:56:00,39.6,38.0,30.02,NNW,341,0.0,0.0,94,0.00,CLR,,0.00,WeatherDisplay:10.37,2013-05-25 10:56:00,
2013-05-25 03:01:00,39.6,38.0,30.02,NNW,341,0.0,0.0,94,0.00,CLR,,0.00,WeatherDisplay:10.37,2013-05-25 11:01:00,
2013-05-25 03:06:00,39.5,37.9,30.02,NNW,341,0.0,0.0,94,0.00,CLR,,0.00,WeatherDisplay:10.37,2013-05-25 11:06:00,
2013-05-25 03:11:00,39.5,37.9,30.02,NNW,341,0.0,0.0,94,0.00,CLR,,0.00,WeatherDisplay:10.37,2013-05-25 11:11:00,
2013-05-25 03:16:00,39.3,37.7,30.02,NNW,341,0.0,0.0,94,0.00,CLR,,0.00,WeatherDisplay:10.37,2013-05-25 11:16:00,
2013-05-25 03:21:00,39.3,37.7,30.02,NNW,341,0.0,0.0,94,0.00,CLR,,0.00,WeatherDisplay:10.37,2013-05-25 11:21:00,
2013-05-25 03:26:00,39.4,38.1,30.02,NNW,341,0.0,0.0,95,0.00,CLR,,0.00,WeatherDisplay:10.37,2013-05-25 11:26:00,
2013-05-25 03:31:00,39.4,38.1,30.02,NNW,341,0.0,0.0,95,0.00,CLR,,0.00,WeatherDisplay:10.37,2013-05-25 11:31:00,
2013-05-25 03:36:00,39.3,37.7,30.02,NNW,341,0.0,0.0,94,0.00,CLR,,0.00,WeatherDisplay:10.37,2013-05-25 11:36:00,
2013-05-25 03:41:00,39.2,37.6,30.02,NNW,341,0.0,0.0,94,0.00,CLR,,0.00,WeatherDisplay:10.37,2013-05-25 11:41:00,
2013-05-25 03:46:00,39.2,37.6,30.02,NNW,341,0.0,0.0,94,0.00,CLR,,0.00,WeatherDisplay:10.37,2013-05-25 11:46:00,
2013-05-25 03:51:00,39.2,37.9,30.02,NNW,341,0.0,0.0,95,0.00,CLR,,0.00,WeatherDisplay:10.37,2013-05-25 11:51:00,
2013-05-25 03:56:00,39.1,37.8,30.01,NNW,341,0.0,0.0,95,0.00,CLR,,0.00,WeatherDisplay:10.37,2013-05-25 11:56:00,
2013-05-25 04:01:00,39.1,37.8,30.01,NNW,341,0.0,0.0,95,0.00,CLR,,0.00,WeatherDisplay:10.37,2013-05-25 12:01:00,
2013-05-25 04:06:00,39.0,37.7,30.02,NNW,341,0.0,0.0,95,0.00,CLR,,0.00,WeatherDisplay:10.37,2013-05-25 12:06:00,
2013-05-25 04:11:00,38.9,37.3,30.02,NNW,341,0.0,0.0,94,0.00,CLR,,0.00,WeatherDisplay:10.37,2013-05-25 12:11:00,
2013-05-25 04:16:00,38.7,37.1,30.02,NNW,341,0.0,0.0,94,0.00,CLR,,0.00,WeatherDisplay:10.37,2013-05-25 12:16:00,
2013-05-25 04:21:00,38.7,37.4,30.01,NNW,341,0.0,0.0,95,0.00,CLR,,0.00,WeatherDisplay:10.37,2013-05-25 12:21:00,
2013-05-25 04:26:00,38.5,37.2,30.01,NNW,341,0.0,0.0,95,0.00,CLR,,0.00,WeatherDisplay:10.37,2013-05-25 12:26:00,
2013-05-25 04:31:00,38.3,37.0,30.01,NNW,341,0.0,0.0,95,0.00,CLR,,0.00,WeatherDisplay:10.37,2013-05-25 12:31:00,
2013-05-25 04:36:00,38.3,37.0,30.01,NNW,341,0.0,0.0,95,0.00,CLR,,0.00,WeatherDisplay:10.37,2013-05-25 12:36:00,
2013-05-25 04:41:00,38.3,37.0,30.01,NNW,341,0.0,0.0,95,0.00,CLR,,0.00,WeatherDisplay:10.37,2013-05-25 12:41:00,
2013-05-25 04:46:00,38.2,36.9,30.01,NNW,341,0.0,0.0,95,0.00,CLR,,0.00,WeatherDisplay:10.37,2013-05-25 12:46:00,
2013-05-25 04:51:00,38.2,36.9,30.01,NNW,341,0.0,0.0,95,0.00,CLR,,0.00,WeatherDisplay:10.37,2013-05-25 12:51:00,
2013-05-25 04:56:00,38.2,36.9,30.01,NNW,341,0.0,0.0,95,0.00,CLR,,0.00,WeatherDisplay:10.37,2013-05-25 12:56:00,
2013-05-25 05:01:00,38.2,36.9,30.01,NNW,341,0.0,0.0,95,0.00,CLR,,0.00,WeatherDisplay:10.37,2013-05-25 13:01:00,
2013-05-25 05:06:00,38.2,36.9,30.01,NNW,341,0.0,0.0,95,0.00,CLR,,0.00,WeatherDisplay:10.37,2013-05-25 13:06:00,
2013-05-25 05:11:00,38.3,37.0,30.01,NNW,341,0.0,0.0,95,0.00,CLR,,0.00,WeatherDisplay:10.37,2013-05-25 13:11:00,
2013-05-25 05:16:00,38.2,36.9,30.01,NNW,341,0.0,0.0,95,0.00,CLR,,0.00,WeatherDisplay:10.37,2013-05-25 13:16:00,
2013-05-25 05:21:00,38.1,36.8,30.01,NNW,341,0.0,0.0,95,0.00,CLR,,0.00,WeatherDisplay:10.37,2013-05-25 13:21:00,
2013-05-25 05:26:00,38.0,36.7,30.01,NNW,341,0.0,0.0,95,0.00,CLR,,0.00,WeatherDisplay:10.37,2013-05-25 13:26:00,
2013-05-25 05:31:00,38.0,36.7,30.01,NNW,341,0.0,0.0,95,0.00,CLR,,0.00,WeatherDisplay:10.37,2013-05-25 13:31:00,
2013-05-25 05:36:00,38.1,36.8,30.01,NNW,341,0.0,0.0,95,0.00,CLR,,0.00,WeatherDisplay:10.37,2013-05-25 13:36:00,
2013-05-25 05:41:00,38.2,36.9,30.01,NNW,341,0.0,0.0,95,0.00,CLR,,0.00,WeatherDisplay:10.37,2013-05-25 13:41:00,
2013-05-25 05:46:00,38.1,36.8,30.01,NNW,341,0.0,0.0,95,0.00,CLR,,0.00,WeatherDisplay:10.37,2013-05-25 13:46:00,
2013-05-25 05:51:00,37.9,36.6,30.01,NNW,341,0.0,0.0,95,0.00,CLR,,0.00,WeatherDisplay:10.37,2013-05-25 13:51:00,
2013-05-25 05:56:00,37.9,36.6,30.01,NNW,341,0.0,0.0,95,0.00,CLR,,0.00,WeatherDisplay:10.37,2013-05-25 13:56:00,
2013-05-25 06:01:00,37.9,36.6,30.01,NNW,341,0.0,0.0,95,0.00,CLR,,0.00,WeatherDisplay:10.37,2013-05-25 14:01:00,
2013-05-25 06:06:00,38.0,36.7,30.01,NNW,341,0.0,0.0,95,0.00,CLR,,0.00,WeatherDisplay:10.37,2013-05-25 14:06:00,
2013-05-25 06:11:00,38.0,36.7,30.01,NNW,341,0.0,0.0,95,0.00,CLR,,0.00,WeatherDisplay:10.37,2013-05-25 14:11:00,
2013-05-25 06:16:00,38.1,36.8,30.01,NNW,341,0.0,0.0,95,0.00,CLR,,0.00,WeatherDisplay:10.37,2013-05-25 14:16:00,
2013-05-25 06:21:00,38.0,36.7,30.01,NNW,341,0.0,0.0,95,0.00,CLR,,0.00,WeatherDisplay:10.37,2013-05-25 14:21:00,
2013-05-25 06:26:00,37.7,36.4,30.01,NNW,341,0.0,0.0,95,0.00,CLR,,0.00,WeatherDisplay:10.37,2013-05-25 14:26:00,
2013-05-25 06:31:00,37.6,36.3,30.02,NNW,341,0.0,0.0,95,0.00,CLR,,0.00,WeatherDisplay:10.37,2013-05-25 14:31:00,
2013-05-25 06:36:00,37.8,36.5,30.02,NNW,341,0.0,0.0,95,0.00,CLR,,0.00,WeatherDisplay:10.37,2013-05-25 14:36:00,
2013-05-25 06:41:00,38.0,36.7,30.02,NNW,341,0.0,0.0,95,0.00,CLR,,0.00,WeatherDisplay:10.37,2013-05-25 14:41:00,
2013-05-25 06:46:00,38.0,36.7,30.02,NNW,341,0.0,0.0,95,0.00,CLR,,0.00,WeatherDisplay:10.37,2013-05-25 14:46:00,
2013-05-25 06:51:00,38.0,36.7,30.02,NNW,341,0.0,0.0,95,0.00,CLR,,0.00,WeatherDisplay:10.37,2013-05-25 14:51:00,
2013-05-25 06:56:00,37.8,36.5,30.02,NNW,341,0.0,0.0,95,0.00,CLR,,0.00,WeatherDisplay:10.37,2013-05-25 14:56:00,
2013-05-25 07:01:00,37.8,36.5,30.02,NNW,341,0.0,0.0,95,0.00,CLR,,0.00,WeatherDisplay:10.37,2013-05-25 15:01:00,
2013-05-25 07:06:00,37.7,36.4,30.02,NNW,341,0.0,0.0,95,0.00,CLR,,0.00,WeatherDisplay:10.37,2013-05-25 15:06:00,
2013-05-25 07:11:00,37.6,36.3,30.02,NNW,341,0.0,0.0,95,0.00,CLR,,0.00,WeatherDisplay:10.37,2013-05-25 15:11:00,
2013-05-25 07:16:00,37.7,36.4,30.02,NNW,341,0.0,0.0,95,0.00,CLR,,0.00,WeatherDisplay:10.37,2013-05-25 15:16:00,
2013-05-25 07:21:00,37.9,36.6,30.02,NNW,341,0.0,0.0,95,0.00,CLR,,0.00,WeatherDisplay:10.37,2013-05-25 15:21:00,
2013-05-25 07:26:00,38.2,36.9,30.02,NNW,341,0.0,0.0,95,0.00,CLR,,0.00,WeatherDisplay:10.37,2013-05-25 15:26:00,
2013-05-25 07:31:00,38.3,37.0,30.02,NNW,341,0.0,0.0,95,0.00,CLR,,0.00,WeatherDisplay:10.37,2013-05-25 15:31:00,
2013-05-25 07:36:00,38.4,37.1,30.02,NNW,341,0.0,0.0,95,0.00,CLR,,0.00,WeatherDisplay:10.37,2013-05-25 15:36:00,
2013-05-25 07:41:00,38.4,37.1,30.02,NNW,341,0.0,0.0,95,0.00,CLR,,0.00,WeatherDisplay:10.37,2013-05-25 15:41:00,
2013-05-25 07:46:00,38.2,36.9,30.02,NNW,341,0.0,0.0,95,0.00,CLR,,0.00,WeatherDisplay:10.37,2013-05-25 15:46:00,
2013-05-25 07:51:00,38.0,36.7,30.02,NNW,341,0.0,0.0,95,0.00,CLR,,0.00,WeatherDisplay:10.37,2013-05-25 15:51:00,
2013-05-25 07:56:00,38.1,36.8,30.02,NNW,341,0.0,0.0,95,0.00,CLR,,0.00,WeatherDisplay:10.37,2013-05-25 15:56:00,
2013-05-25 08:01:00,38.3,37.0,30.02,NNW,341,0.0,0.0,95,0.00,CLR,,0.00,WeatherDisplay:10.37,2013-05-25 16:01:00,
2013-05-25 08:06:00,38.4,37.1,30.02,NNW,341,0.0,0.0,95,0.00,CLR,,0.00,WeatherDisplay:10.37,2013-05-25 16:06:00,
2013-05-25 08:11:00,38.6,37.3,30.02,NNW,341,0.0,0.0,95,0.00,CLR,,0.00,WeatherDisplay:10.37,2013-05-25 16:11:00,
2013-05-25 08:16:00,38.6,37.3,30.02,NNW,341,0.0,0.0,95,0.00,CLR,,0.00,WeatherDisplay:10.37,2013-05-25 16:16:00,
2013-05-25 08:21:00,38.6,37.3,30.02,NNW,341,0.0,0.0,95,0.00,CLR,,0.00,WeatherDisplay:10.37,2013-05-25 16:21:00,
2013-05-25 08:26:00,38.9,37.6,30.02,NNW,341,0.0,0.0,95,0.00,CLR,,0.00,WeatherDisplay:10.37,2013-05-25 16:26:00,
2013-05-25 08:31:00,39.0,37.7,30.03,NNW,341,0.0,0.0,95,0.00,CLR,,0.00,WeatherDisplay:10.37,2013-05-25 16:31:00,
2013-05-25 08:36:00,38.9,37.6,30.02,NNW,341,0.0,0.0,95,0.00,CLR,,0.00,WeatherDisplay:10.37,2013-05-25 16:36:00,
2013-05-25 08:41:00,38.9,37.6,30.02,NNW,341,0.0,0.0,95,0.00,CLR,,0.00,WeatherDisplay:10.37,2013-05-25 16:41:00,
2013-05-25 08:46:00,39.2,37.9,30.02,NNW,341,0.0,0.0,95,0.00,CLR,,0.00,WeatherDisplay:10.37,2013-05-25 16:46:00,
2013-05-25 08:51:00,39.2,37.9,30.02,NNW,341,0.0,0.0,95,0.00,CLR,,0.00,WeatherDisplay:10.37,2013-05-25 16:51:00,
2013-05-25 08:56:00,39.3,38.0,30.02,NNW,341,0.0,0.0,95,0.00,CLR,,0.00,WeatherDisplay:10.37,2013-05-25 16:56:00,
2013-05-25 09:01:00,39.4,38.1,30.02,NNW,341,0.0,0.0,95,0.00,CLR,,0.00,WeatherDisplay:10.37,2013-05-25 17:01:00,
2013-05-25 09:06:00,39.5,38.2,30.02,NNW,341,0.0,0.0,95,0.00,CLR,,0.00,WeatherDisplay:10.37,2013-05-25 17:06:00,
2013-05-25 09:11:00,39.7,38.4,30.02,NNW,341,0.0,0.0,95,0.00,CLR,,0.00,WeatherDisplay:10.37,2013-05-25 17:11:00,
2013-05-25 09:16:00,39.8,38.5,30.02,NNW,341,0.0,0.0,95,0.00,CLR,,0.00,WeatherDisplay:10.37,2013-05-25 17:16:00,
2013-05-25 09:21:00,39.9,38.6,30.02,NNW,341,0.0,0.0,95,0.00,CLR,,0.00,WeatherDisplay:10.37,2013-05-25 17:21:00,
2013-05-25 09:26:00,40.0,38.7,30.02,NNW,341,0.0,0.0,95,0.00,CLR,,0.00,WeatherDisplay:10.37,2013-05-25 17:26:00,
2013-05-25 09:31:00,40.1,38.8,30.03,NNW,341,0.0,0.0,95,0.00,CLR,,0.00,WeatherDisplay:10.37,2013-05-25 17:31:00,
2013-05-25 09:36:00,40.0,38.7,30.03,NNW,341,0.0,0.0,95,0.00,CLR,,0.00,WeatherDisplay:10.37,2013-05-25 17:36:00,
2013-05-25 09:41:00,40.1,38.8,30.03,NNW,341,0.0,0.0,95,0.00,CLR,,0.00,WeatherDisplay:10.37,2013-05-25 17:41:00,
2013-05-25 09:46:00,40.1,38.8,30.03,NNW,341,0.0,0.0,95,0.00,CLR,,0.00,WeatherDisplay:10.37,2013-05-25 17:46:00,
2013-05-25 09:51:00,40.2,38.6,30.02,NNW,341,0.0,0.0,94,0.00,CLR,,0.00,WeatherDisplay:10.37,2013-05-25 17:51:00,
2013-05-25 09:56:00,40.4,38.8,30.02,NNW,341,0.0,0.0,94,0.00,CLR,,0.00,WeatherDisplay:10.37,2013-05-25 17:56:00,
2013-05-25 10:01:00,40.7,39.1,30.02,NNW,341,0.0,0.0,94,0.00,CLR,,0.00,WeatherDisplay:10.37,2013-05-25 18:01:00,
2013-05-25 10:06:00,41.0,39.4,30.02,NNW,341,0.0,0.0,94,0.00,CLR,,0.00,WeatherDisplay:10.37,2013-05-25 18:06:00,
2013-05-25 10:11:00,41.1,39.5,30.02,NNW,341,0.0,0.0,94,0.00,CLR,,0.00,WeatherDisplay:10.37,2013-05-25 18:11:00,
2013-05-25 10:16:00,41.2,39.3,30.03,NNW,341,0.0,0.0,93,0.00,CLR,,0.00,WeatherDisplay:10.37,2013-05-25 18:16:00,
2013-05-25 10:21:00,41.4,39.5,30.03,NNW,341,0.0,0.0,93,0.00,CLR,,0.00,WeatherDisplay:10.37,2013-05-25 18:21:00,
2013-05-25 10:26:00,41.4,39.3,30.03,NNW,341,0.0,0.0,92,0.00,CLR,,0.00,WeatherDisplay:10.37,2013-05-25 18:26:00,
2013-05-25 10:31:00,41.4,39.3,30.03,NNW,341,0.0,0.0,92,0.00,CLR,,0.00,WeatherDisplay:10.37,2013-05-25 18:31:00,
2013-05-25 10:36:00,41.5,39.1,30.03,NNW,341,0.0,0.0,91,0.00,CLR,,0.00,WeatherDisplay:10.37,2013-05-25 18:36:00,
2013-05-25 10:41:00,41.5,39.1,30.03,NNW,341,0.0,0.0,91,0.00,CLR,,0.00,WeatherDisplay:10.37,2013-05-25 18:41:00,
2013-05-25 10:46:00,41.6,39.2,30.03,NNW,341,0.0,0.0,91,0.00,CLR,,0.00,WeatherDisplay:10.37,2013-05-25 18:46:00,
2013-05-25 10:51:00,41.7,39.3,30.03,NNW,341,0.0,0.0,91,0.00,CLR,,0.00,WeatherDisplay:10.37,2013-05-25 18:51:00,
2013-05-25 10:56:00,41.8,39.4,30.03,NNW,341,0.0,0.0,91,0.00,CLR,,0.00,WeatherDisplay:10.37,2013-05-25 18:56:00,
2013-05-25 11:01:00,42.0,39.6,30.03,NNW,342,0.0,0.0,91,0.00,CLR,,0.00,WeatherDisplay:10.37,2013-05-25 19:01:00,
2013-05-25 11:06:00,42.1,39.7,30.03,NNW,341,0.0,0.0,91,0.00,CLR,,0.00,WeatherDisplay:10.37,2013-05-25 19:06:00,
2013-05-25 11:11:00,42.3,39.6,30.03,NNW,341,0.0,0.0,90,0.00,CLR,,0.00,WeatherDisplay:10.37,2013-05-25 19:11:00,
2013-05-25 11:16:00,42.3,39.6,30.03,NNW,341,0.0,0.0,90,0.00,CLR,,0.00,WeatherDisplay:10.37,2013-05-25 19:16:00,
2013-05-25 11:21:00,42.3,39.6,30.03,NNW,341,0.0,0.0,90,0.00,CLR,,0.00,WeatherDisplay:10.37,2013-05-25 19:21:00,
2013-05-25 11:26:00,42.5,39.5,30.03,NNW,341,0.0,0.0,89,0.00,CLR,,0.00,WeatherDisplay:10.37,2013-05-25 19:26:00,
2013-05-25 11:31:00,42.7,39.7,30.03,NNW,341,0.0,0.0,89,0.00,CLR,,0.00,WeatherDisplay:10.37,2013-05-25 19:31:00,
2013-05-25 11:36:00,42.9,39.6,30.03,NNW,341,0.0,0.0,88,0.00,CLR,,0.00,WeatherDisplay:10.37,2013-05-25 19:36:00,
2013-05-25 11:41:00,43.1,40.1,30.03,NNW,342,0.0,0.0,89,0.00,CLR,,0.00,WeatherDisplay:10.37,2013-05-25 19:41:00,
2013-05-25 11:46:00,43.4,40.1,30.03,NNW,341,0.0,0.0,88,0.00,CLR,,0.00,WeatherDisplay:10.37,2013-05-25 19:46:00,
2013-05-25 11:51:00,43.5,40.2,30.03,NNW,342,0.0,0.0,88,0.00,CLR,,0.00,WeatherDisplay:10.37,2013-05-25 19:51:00,
2013-05-25 11:56:00,43.6,40.0,30.03,NNW,342,0.0,0.0,87,0.00,CLR,,0.00,WeatherDisplay:10.37,2013-05-25 19:56:00,
2013-05-25 12:01:00,43.3,40.0,30.03,NNW,341,0.0,0.0,88,0.00,CLR,,0.00,WeatherDisplay:10.37,2013-05-25 20:01:00,
2013-05-25 12:06:00,43.4,40.1,30.03,NNW,341,0.0,0.0,88,0.00,CLR,,0.00,WeatherDisplay:10.37,2013-05-25 20:06:00,
2013-05-25 12:11:00,43.5,39.9,30.03,NNW,341,0.0,0.0,87,0.00,CLR,,0.00,WeatherDisplay:10.37,2013-05-25 20:11:00,
2013-05-25 12:16:00,43.7,40.1,30.03,NNW,341,0.0,0.0,87,0.00,CLR,,0.00,WeatherDisplay:10.37,2013-05-25 20:16:00,
2013-05-25 12:21:00,44.0,40.1,30.02,NNW,341,0.0,0.0,86,0.00,CLR,,0.00,WeatherDisplay:10.37,2013-05-25 20:21:00,
2013-05-25 12:26:00,44.4,40.5,30.02,NNW,341,0.0,0.0,86,0.00,CLR,,0.00,WeatherDisplay:10.37,2013-05-25 20:26:00,
2013-05-25 12:31:00,44.7,40.5,30.02,NNW,342,0.0,0.0,85,0.00,CLR,,0.00,WeatherDisplay:10.37,2013-05-25 20:31:00,
2013-05-25 12:36:00,45.0,40.8,30.02,NNW,341,0.0,0.0,85,0.00,CLR,,0.00,WeatherDisplay:10.37,2013-05-25 20:36:00,
2013-05-25 12:41:00,45.3,40.7,30.02,NNW,341,0.0,0.0,84,0.00,CLR,,0.00,WeatherDisplay:10.37,2013-05-25 20:41:00,
2013-05-25 12:46:00,45.7,41.1,30.02,NNW,342,0.0,0.0,84,0.00,CLR,,0.00,WeatherDisplay:10.37,2013-05-25 20:46:00,
2013-05-25 12:51:00,46.1,41.2,30.02,NNW,341,0.0,0.0,83,0.00,CLR,,0.00,WeatherDisplay:10.37,2013-05-25 20:51:00,
2013-05-25 12:56:00,46.5,41.3,30.02,NNW,341,0.0,0.0,82,0.00,CLR,,0.00,WeatherDisplay:10.37,2013-05-25 20:56:00,
2013-05-25 13:01:00,46.9,41.1,30.02,NNW,341,0.0,0.0,80,0.00,CLR,,0.00,WeatherDisplay:10.37,2013-05-25 21:01:00,
2013-05-25 13:06:00,47.2,41.3,30.02,NNW,342,0.0,0.0,80,0.00,CLR,,0.00,WeatherDisplay:10.37,2013-05-25 21:06:00,
2013-05-25 13:11:00,47.3,41.4,30.01,NNW,342,0.0,0.0,80,0.00,CLR,,0.00,WeatherDisplay:10.37,2013-05-25 21:11:00,
2013-05-25 13:16:00,47.5,41.3,30.01,NNW,341,0.0,0.0,79,0.00,CLR,,0.00,WeatherDisplay:10.37,2013-05-25 21:16:00,
2013-05-25 13:21:00,47.8,41.6,30.02,NNW,341,0.0,0.0,79,0.00,CLR,,0.00,WeatherDisplay:10.37,2013-05-25 21:21:00,
2013-05-25 13:26:00,47.8,41.6,30.02,NNW,341,0.0,0.0,79,0.00,CLR,,0.00,WeatherDisplay:10.37,2013-05-25 21:26:00,
2013-05-25 13:31:00,47.9,41.4,30.01,NNW,342,0.0,0.0,78,0.00,CLR,,0.00,WeatherDisplay:10.37,2013-05-25 21:31:00,
2013-05-25 13:36:00,48.2,41.7,30.02,NNW,341,0.0,0.0,78,0.00,CLR,,0.00,WeatherDisplay:10.37,2013-05-25 21:36:00,
2013-05-25 13:41:00,48.3,41.8,30.02,NNW,342,0.0,0.0,78,0.00,CLR,,0.00,WeatherDisplay:10.37,2013-05-25 21:41:00,
2013-05-25 13:46:00,48.4,41.9,30.02,NNW,341,0.0,0.0,78,0.00,CLR,,0.00,WeatherDisplay:10.37,2013-05-25 21:46:00,
2013-05-25 13:51:00,48.7,41.8,30.02,NNW,341,0.0,0.0,77,0.00,CLR,,0.00,WeatherDisplay:10.37,2013-05-25 21:51:00,
2013-05-25 13:56:00,48.9,42.0,30.02,NNW,341,0.0,0.0,77,0.00,CLR,,0.00,WeatherDisplay:10.37,2013-05-25 21:56:00,
2013-05-25 14:01:00,49.4,42.1,30.02,NNW,341,0.0,0.0,76,0.00,CLR,,0.00,WeatherDisplay:10.37,2013-05-25 22:01:00,
2013-05-25 14:06:00,49.7,42.1,30.02,NNW,342,0.0,0.0,75,0.00,CLR,,0.00,WeatherDisplay:10.37,2013-05-25 22:06:00,
2013-05-25 14:11:00,49.5,41.9,30.02,NNW,341,0.0,0.0,75,0.00,CLR,,0.00,WeatherDisplay:10.37,2013-05-25 22:11:00,
2013-05-25 14:16:00,49.5,42.2,30.01,NNW,341,0.0,0.0,76,0.00,CLR,,0.00,WeatherDisplay:10.37,2013-05-25 22:16:00,
2013-05-25 14:21:00,50.0,42.4,30.01,NNW,342,0.0,0.0,75,0.00,CLR,,0.00,WeatherDisplay:10.37,2013-05-25 22:21:00,
2013-05-25 16:03:00,50.1,42.5,30.01,NNW,341,0.0,0.0,75,0.00,CLR,,0.00,WeatherDisplay:10.37,2013-05-26 00:03:00,
2013-05-25 16:08:00,50.2,42.6,30.01,NNW,342,0.0,0.0,75,0.00,CLR,,0.00,WeatherDisplay:10.37,2013-05-26 00:08:00,
2013-05-25 16:13:00,50.3,42.3,30.00,NNW,342,0.0,0.0,74,0.00,CLR,,0.00,WeatherDisplay:10.37,2013-05-26 00:13:00,
2013-05-25 16:18:00,50.1,42.1,30.00,NNW,341,0.0,0.0,74,0.00,CLR,,0.00,WeatherDisplay:10.37,2013-05-26 00:18:00,
2013-05-25 16:23:00,50.1,42.1,30.00,NNW,342,0.0,0.0,74,0.00,CLR,,0.00,WeatherDisplay:10.37,2013-05-26 00:23:00,
2013-05-25 16:28:00,50.6,42.3,30.00,NNW,342,0.0,0.0,73,0.00,CLR,,0.00,WeatherDisplay:10.37,2013-05-26 00:28:00,
2013-05-25 16:33:00,51.1,42.4,30.00,NNW,342,0.0,0.0,72,0.00,CLR,,0.00,WeatherDisplay:10.37,2013-05-26 00:33:00,
2013-05-25 16:38:00,51.3,42.6,30.00,NNW,342,0.0,0.0,72,0.00,CLR,,0.00,WeatherDisplay:10.37,2013-05-26 00:38:00,
2013-05-25 16:43:00,51.5,42.4,30.00,NNW,342,0.0,0.0,71,0.00,CLR,,0.00,WeatherDisplay:10.37,2013-05-26 00:43:00,
2013-05-25 16:48:00,51.5,42.4,30.00,NNW,342,0.0,0.0,71,0.00,CLR,,0.00,WeatherDisplay:10.37,2013-05-26 00:48:00,
2013-05-25 16:53:00,51.5,42.4,30.00,NNW,341,0.0,0.0,71,0.00,CLR,,0.00,WeatherDisplay:10.37,2013-05-26 00:53:00,
2013-05-25 16:58:00,51.1,42.4,30.00,NNW,341,0.0,0.0,72,0.00,CLR,,0.00,WeatherDisplay:10.37,2013-05-26 00:58:00,
2013-05-25 17:03:00,50.7,42.0,30.00,NNW,342,0.0,0.0,72,0.00,CLR,,0.00,WeatherDisplay:10.37,2013-05-26 01:03:00,
2013-05-25 17:08:00,50.5,42.2,29.99,NNW,342,0.0,0.0,73,0.00,CLR,,0.00,WeatherDisplay:10.37,2013-05-26 01:08:00,
2013-05-25 17:13:00,50.6,42.3,29.99,NNW,342,0.0,0.0,73,0.00,CLR,,0.00,WeatherDisplay:10.37,2013-05-26 01:13:00,
2013-05-25 17:18:00,50.7,42.4,29.99,NNW,342,0.0,0.0,73,0.00,CLR,,0.00,WeatherDisplay:10.37,2013-05-26 01:18:00,
2013-05-25 17:23:00,50.1,42.1,29.99,NNW,341,0.0,0.0,74,0.00,CLR,,0.00,WeatherDisplay:10.37,2013-05-26 01:23:00,
2013-05-25 17:28:00,50.1,42.5,29.99,NNW,341,0.0,0.0,75,0.00,CLR,,0.00,WeatherDisplay:10.37,2013-05-26 01:28:00,
2013-05-25 17:33:00,50.6,42.3,29.99,NNW,341,0.0,0.0,73,0.00,CLR,,0.00,WeatherDisplay:10.37,2013-05-26 01:33:00,
2013-05-25 17:38:00,50.8,42.5,29.99,NNW,341,0.0,0.0,73,0.00,CLR,,0.00,WeatherDisplay:10.37,2013-05-26 01:38:00,
2013-05-25 17:43:00,50.5,42.2,29.99,NNW,341,0.0,0.0,73,0.00,CLR,,0.00,WeatherDisplay:10.37,2013-05-26 01:43:00,
2013-05-25 17:48:00,50.6,42.3,29.98,NNW,341,0.0,0.0,73,0.00,CLR,,0.00,WeatherDisplay:10.37,2013-05-26 01:48:00,
2013-05-25 17:53:00,50.5,42.2,29.99,NNW,341,0.0,0.0,73,0.00,CLR,,0.00,WeatherDisplay:10.37,2013-05-26 01:53:00,
2013-05-25 17:58:00,50.4,42.1,29.98,NNW,341,0.0,0.0,73,0.00,CLR,,0.00,WeatherDisplay:10.37,2013-05-26 01:58:00,
2013-05-25 18:03:00,50.4,42.1,29.98,NNW,341,0.0,0.0,73,0.00,CLR,,0.00,WeatherDisplay:10.37,2013-05-26 02:03:00,
2013-05-25 18:08:00,50.4,42.1,29.98,NNW,341,0.0,0.0,73,0.00,CLR,,0.00,WeatherDisplay:10.37,2013-05-26 02:08:00,
2013-05-25 18:13:00,50.4,42.1,29.98,NNW,341,0.0,0.0,73,0.00,CLR,,0.00,WeatherDisplay:10.37,2013-05-26 02:13:00,
2013-05-25 18:18:00,50.3,42.3,29.98,NNW,341,0.0,0.0,74,0.00,CLR,,0.00,WeatherDisplay:10.37,2013-05-26 02:18:00,
2013-05-25 18:23:00,50.3,42.3,29.98,NNW,341,0.0,0.0,74,0.00,CLR,,0.00,WeatherDisplay:10.37,2013-05-26 02:23:00,
2013-05-25 18:28:00,50.3,42.0,29.98,NNW,341,0.0,0.0,73,0.00,CLR,,0.00,WeatherDisplay:10.37,2013-05-26 02:28:00,
2013-05-25 18:33:00,50.5,42.2,29.98,NNW,341,0.0,0.0,73,0.00,CLR,,0.00,WeatherDisplay:10.37,2013-05-26 02:33:00,
2013-05-25 18:38:00,50.1,42.1,29.97,NNW,341,0.0,0.0,74,0.00,CLR,,0.00,WeatherDisplay:10.37,2013-05-26 02:38:00,
2013-05-25 18:43:00,50.1,42.1,29.97,NNW,341,0.0,0.0,74,0.00,CLR,,0.00,WeatherDisplay:10.37,2013-05-26 02:43:00,
2013-05-25 18:48:00,50.3,42.0,29.97,NNW,341,0.0,0.0,73,0.00,CLR,,0.00,WeatherDisplay:10.37,2013-05-26 02:48:00,
2013-05-25 18:53:00,50.4,42.4,29.97,NNW,341,0.0,0.0,74,0.00,CLR,,0.00,WeatherDisplay:10.37,2013-05-26 02:53:00,
2013-05-25 18:58:00,50.3,42.0,29.97,NNW,341,0.0,0.0,73,0.00,CLR,,0.00,WeatherDisplay:10.37,2013-05-26 02:58:00,
2013-05-25 19:03:00,49.5,41.6,29.97,NNW,341,0.0,0.0,74,0.00,CLR,,0.00,WeatherDisplay:10.37,2013-05-26 03:03:00,
2013-05-25 19:08:00,48.6,41.4,29.97,NNW,341,0.0,0.0,76,0.00,CLR,,0.00,WeatherDisplay:10.37,2013-05-26 03:08:00,
2013-05-25 19:13:00,47.6,41.1,29.97,NNW,341,0.0,0.0,78,0.00,CLR,,0.00,WeatherDisplay:10.37,2013-05-26 03:13:00,
2013-05-25 19:18:00,47.1,40.9,29.97,NNW,341,0.0,0.0,79,0.00,CLR,,0.00,WeatherDisplay:10.37,2013-05-26 03:18:00,
2013-05-25 19:23:00,46.7,40.9,29.97,NNW,341,0.0,0.0,80,0.00,CLR,,0.00,WeatherDisplay:10.37,2013-05-26 03:23:00,
2013-05-25 19:28:00,46.3,40.8,29.96,NNW,341,0.0,0.0,81,0.00,CLR,,0.00,WeatherDisplay:10.37,2013-05-26 03:28:00,
2013-05-25 19:33:00,46.0,40.8,29.97,NNW,341,0.0,0.0,82,0.00,CLR,,0.00,WeatherDisplay:10.37,2013-05-26 03:33:00,
2013-05-25 19:38:00,45.6,40.4,29.96,NNW,341,0.0,0.0,82,0.00,CLR,,0.00,WeatherDisplay:10.37,2013-05-26 03:38:00,
2013-05-25 19:43:00,45.4,40.5,29.96,NNW,341,0.0,0.0,83,0.00,CLR,,0.00,WeatherDisplay:10.37,2013-05-26 03:43:00,
2013-05-25 19:48:00,45.2,40.3,29.97,NNW,341,0.0,0.0,83,0.00,CLR,,0.00,WeatherDisplay:10.37,2013-05-26 03:48:00,
2013-05-25 19:53:00,45.0,40.5,29.97,NNW,341,0.0,0.0,84,0.00,CLR,,0.00,WeatherDisplay:10.37,2013-05-26 03:53:00,
2013-05-25 19:58:00,45.0,40.5,29.97,NNW,341,0.0,0.0,84,0.00,CLR,,0.00,WeatherDisplay:10.37,2013-05-26 03:58:00,
2013-05-25 20:01:00,44.9,40.4,29.96,NNW,341,0.0,0.0,84,0.00,CLR,,0.00,WeatherDisplay:10.37,2013-05-26 04:01:00,
2013-05-25 20:06:00,44.8,40.3,29.97,NNW,341,0.0,0.0,84,0.00,CLR,,0.00,WeatherDisplay:10.37,2013-05-26 04:06:00,
2013-05-25 20:11:00,44.6,40.1,29.97,NNW,341,0.0,0.0,84,0.00,CLR,,0.00,WeatherDisplay:10.37,2013-05-26 04:11:00,
2013-05-25 20:16:00,44.4,40.2,29.97,NNW,341,0.0,0.0,85,0.00,CLR,,0.00,WeatherDisplay:10.37,2013-05-26 04:16:00,
2013-05-25 20:21:00,44.3,40.1,29.97,NNW,341,0.0,0.0,85,0.00,CLR,,0.00,WeatherDisplay:10.37,2013-05-26 04:21:00,
2013-05-25 20:26:00,44.2,40.0,29.97,NNW,341,0.0,0.0,85,0.00,CLR,,0.00,WeatherDisplay:10.37,2013-05-26 04:26:00,
2013-05-25 20:31:00,44.1,40.2,29.97,NNW,341,0.0,0.0,86,0.00,CLR,,0.00,WeatherDisplay:10.37,2013-05-26 04:31:00,
2013-05-25 20:36:00,44.0,40.1,29.97,NNW,341,0.0,0.0,86,0.00,CLR,,0.00,WeatherDisplay:10.37,2013-05-26 04:36:00,
2013-05-25 20:41:00,43.9,40.0,29.97,NNW,341,0.0,0.0,86,0.00,CLR,,0.00,WeatherDisplay:10.37,2013-05-26 04:41:00,
2013-05-25 20:46:00,43.8,39.9,29.97,NNW,341,0.0,0.0,86,0.00,CLR,,0.00,WeatherDisplay:10.37,2013-05-26 04:46:00,
2013-05-25 20:51:00,43.6,40.0,29.97,NNW,341,0.0,0.0,87,0.00,CLR,,0.00,WeatherDisplay:10.37,2013-05-26 04:51:00,
2013-05-25 20:56:00,43.6,40.0,29.97,NNW,341,0.0,0.0,87,0.00,CLR,,0.00,WeatherDisplay:10.37,2013-05-26 04:56:00,
2013-05-25 21:01:00,43.4,39.8,29.97,NNW,341,0.0,0.0,87,0.00,CLR,,0.00,WeatherDisplay:10.37,2013-05-26 05:01:00,
2013-05-25 21:06:00,43.4,39.8,29.97,NNW,341,0.0,0.0,87,0.00,CLR,,0.00,WeatherDisplay:10.37,2013-05-26 05:06:00,
2013-05-25 21:11:00,43.4,39.8,29.97,NNW,341,0.0,0.0,87,0.00,CLR,,0.00,WeatherDisplay:10.37,2013-05-26 05:11:00,
2013-05-25 21:16:00,43.3,39.7,29.97,NNW,341,0.0,0.0,87,0.00,CLR,,0.00,WeatherDisplay:10.37,2013-05-26 05:16:00,
2013-05-25 21:21:00,43.2,39.9,29.97,NNW,341,0.0,0.0,88,0.00,CLR,,0.00,WeatherDisplay:10.37,2013-05-26 05:21:00,
2013-05-25 21:26:00,43.2,39.9,29.97,NNW,342,0.0,0.0,88,0.00,CLR,,0.00,WeatherDisplay:10.37,2013-05-26 05:26:00,
2013-05-25 21:31:00,43.1,39.5,29.97,NNW,341,0.0,0.0,87,0.00,CLR,,0.00,WeatherDisplay:10.37,2013-05-26 05:31:00,
2013-05-25 21:36:00,43.1,39.8,29.97,NNW,342,0.0,0.0,88,0.00,CLR,,0.00,WeatherDisplay:10.37,2013-05-26 05:36:00,
2013-05-25 21:41:00,43.1,39.5,29.97,NNW,342,0.0,0.0,87,0.00,CLR,,0.00,WeatherDisplay:10.37,2013-05-26 05:41:00,
2013-05-25 21:46:00,43.1,39.5,29.97,NNW,343,0.0,0.0,87,0.00,CLR,,0.00,WeatherDisplay:10.37,2013-05-26 05:46:00,
2013-05-25 21:51:00,43.2,39.9,29.97,NNW,343,0.0,0.0,88,0.00,CLR,,0.00,WeatherDisplay:10.37,2013-05-26 05:51:00,
2013-05-25 21:56:00,43.1,39.5,29.97,NNW,343,0.0,0.0,87,0.00,CLR,,0.00,WeatherDisplay:10.37,2013-05-26 05:56:00,
2013-05-25 22:01:00,42.9,39.6,29.97,NNW,343,0.0,0.0,88,0.00,CLR,,0.00,WeatherDisplay:10.37,2013-05-26 06:01:00,
2013-05-25 22:06:00,43.0,39.7,29.97,NNW,343,0.0,0.0,88,0.00,CLR,,0.00,WeatherDisplay:10.37,2013-05-26 06:06:00,
2013-05-25 22:11:00,43.0,39.7,29.97,NNW,343,0.0,0.0,88,0.00,CLR,,0.00,WeatherDisplay:10.37,2013-05-26 06:11:00,
2013-05-25 22:16:00,43.1,39.8,29.97,NNW,343,0.0,0.0,88,0.00,CLR,,0.00,WeatherDisplay:10.37,2013-05-26 06:16:00,
2013-05-25 22:21:00,43.1,39.5,29.97,NNW,343,0.0,0.0,87,0.00,CLR,,0.00,WeatherDisplay:10.37,2013-05-26 06:21:00,
2013-05-25 22:26:00,43.2,41.0,29.97,NNW,343,0.0,0.0,92,0.00,CLR,,0.00,WeatherDisplay:10.37,2013-05-26 06:26:00,
2013-05-25 22:31:00,43.2,39.6,29.97,NNW,343,0.0,0.0,87,0.00,CLR,,0.00,WeatherDisplay:10.37,2013-05-26 06:31:00,
2013-05-25 22:36:00,43.1,39.5,29.97,NNW,343,0.0,0.0,87,0.00,CLR,,0.00,WeatherDisplay:10.37,2013-05-26 06:36:00,
2013-05-25 22:41:00,43.0,39.4,29.97,NNW,343,0.0,0.0,87,0.00,CLR,,0.00,WeatherDisplay:10.37,2013-05-26 06:41:00,
2013-05-25 22:46:00,42.9,39.3,29.97,NNW,343,0.0,0.0,87,0.00,CLR,,0.00,WeatherDisplay:10.37,2013-05-26 06:46:00,
2013-05-25 22:51:00,42.7,39.1,29.97,NNW,343,0.0,0.0,87,0.00,CLR,,0.00,WeatherDisplay:10.37,2013-05-26 06:51:00,
2013-05-25 22:56:00,42.7,39.4,29.97,NNW,343,0.0,0.0,88,0.00,CLR,,0.00,WeatherDisplay:10.37,2013-05-26 06:56:00,
2013-05-25 23:01:00,42.7,39.1,29.97,NNW,343,0.0,0.0,87,0.00,CLR,,0.00,WeatherDisplay:10.37,2013-05-26 07:01:00,
2013-05-25 23:06:00,42.5,38.9,29.97,NNW,343,0.0,0.0,87,0.00,CLR,,0.00,WeatherDisplay:10.37,2013-05-26 07:06:00,
2013-05-25 23:11:00,42.5,39.2,29.98,NNW,343,0.0,0.0,88,0.00,CLR,,0.00,WeatherDisplay:10.37,2013-05-26 07:11:00,
2013-05-25 23:16:00,42.4,38.8,29.97,NNW,343,0.0,0.0,87,0.00,CLR,,0.00,WeatherDisplay:10.37,2013-05-26 07:16:00,
2013-05-25 23:21:00,42.4,38.8,29.97,NNW,343,0.0,0.0,87,0.00,CLR,,0.00,WeatherDisplay:10.37,2013-05-26 07:21:00,
2013-05-25 23:26:00,42.3,38.7,29.98,NNW,343,0.0,0.0,87,0.00,CLR,,0.00,WeatherDisplay:10.37,2013-05-26 07:26:00,
2013-05-25 23:31:00,42.2,38.6,29.98,NNW,343,0.0,0.0,87,0.00,CLR,,0.00,WeatherDisplay:10.37,2013-05-26 07:31:00,
2013-05-25 23:36:00,42.0,38.7,29.97,NNW,343,0.0,0.0,88,0.00,CLR,,0.00,WeatherDisplay:10.37,2013-05-26 07:36:00,
2013-05-25 23:41:00,41.8,38.5,29.97,NNW,343,0.0,0.0,88,0.00,CLR,,0.00,WeatherDisplay:10.37,2013-05-26 07:41:00,
2013-05-25 23:46:00,41.6,38.0,29.97,NNW,343,0.0,0.0,87,0.00,CLR,,0.00,WeatherDisplay:10.37,2013-05-26 07:46:00,
2013-05-25 23:51:00,41.5,38.2,29.97,NNW,343,0.0,0.0,88,0.00,CLR,,0.00,WeatherDisplay:10.37,2013-05-26 07:51:00,
2013-05-25 23:56:00,41.5,38.2,29.97,NNW,343,0.0,0.0,88,0.00,CLR,,0.00,WeatherDisplay:10.37,2013-05-26 07:56:00,